Location: Pian di Sc�
(43.6333°N, 11.5500°E)
Time: 17:03:58
(UTC+00:00)

Okean 1 Rocket - Pass Details

Date: 07 August 2020
Orbit: 607 x 633 km, 82.5° (Epoch: 18 September)

Event Time Altitude Azimuth Distance (km) Brightness Sun altitude
Exits shadow 01:01:01 68° 54° (NE) 660 3.2 -25.7°
Drops below altitude 10° 01:05:00 10° 12° (NNE) 1,973 6.6 -25.4°
Sets 01:07:14 0° 11° (N) 2,885 7.7 -25.2°
